Temperature
17 16 16 16 16 16 16 16 16 16 16 16 16 15 15 15 15 15 15 15 15 15 15 15 15 15 15 15 15 15 15 15 15 15 15 15 15 15 15 15 15 15 15
17 16 16 16 16 16 16 16 16 16 15 15 15 15 15 15 15 15 15 15 15 15 15 15 15 15 15 15 15 15 14 14 14 14 14 14 14 15 15 15 15 15 15
16 16 16 16 16 16 16 16 16 15 15 15 15 15 15 15 15 14 14 14 14 14 15 14 14 14 14 14 14 14 14 14 14 14 14 14 14 14 14 14 14 14 14
16 16 16 16 16 16 16 15 15 15 15 15 15 15 15 15 14 14 14 14 14 14 14 14 14 14 14 14 14 14 14 14 14 14 14 14 14 14 14 14 14 14 14
16 16 16 16 16 16 15 15 15 15 15 15 15 15 15 14 14 14 14 14 14 14 14 14 14 14 14 14 14 14 14 14 14 14 14 14 14 14 14 14 14 14 14
16 16 16 16 15 15 15 15 15 15 15 15 15 15 14 14 14 14 14 14 14 14 14 13 14 14 14 14 14 14 14 14 14 14 14 14 14 14 14 13 14 14 14
16 16 15 15 15 15 15 15 15 15 15 15 15 15 14 14 14 14 14 14 14 13 13 13 13 13 13 13 13 13 14 14 14 14 13 13 13 13 13 13 13 13 13
16 15 15 15 15 15 15 15 15 15 14 14 14 14 14 14 14 14 14 14 13 13 13 13 13 13 13 13 13 13 13 13 13 13 13 13 13 13 13 13 13 13 13
15 15 15 15 15 15 15 15 14 14 14 14 14 14 14 14 14 14 14 14 13 13 13 13 13 13 13 13 13 13 13 13 13 13 13 13 13 13 13 13 13 13 13
15 15 15 15 15 15 15 14 14 14 14 14 14 14 14 14 14 13 13 13 13 13 13 13 13 13 13 13 13 13 13 13 13 13 13 13 13 13 13 13 13 13 13
15 15 15 15 15 15 14 14 14 14 14 14 14 14 14 14 14 13 13 13 13 13 13 13 13 13 13 13 13 13 13 13 13 13 13 13 13 13 13 13 13 13 13
15 15 15 15 14 14 14 14 14 14 14 14 14 14 13 13 13 13 13 13 13 13 13 13 13 13 13 13 13 13 13 13 13 13 13 13 13 13 13 12 12 12 12
15 15 14 14 14 14 14 14 14 14 14 13 13 13 13 13 13 13 13 13 13 13 13 13 13 13 13 13 13 13 13 13 13 13 13 13 13 12 12 12 12 12 12
14 14 14 14 14 14 14 14 14 14 13 13 13 13 13 13 13 13 13 13 12 12 13 13 13 13 13 13 13 13 13 13 13 13 13 12 12 12 12 12 12 12 12
14 14 14 14 14 14 14 14 14 14 13 13 13 13 13 13 13 13 13 13 12 12 12 13 12 13 13 12 12 13 13 13 12 13 12 12 12 12 12 12 12 12 12
14 14 14 14 14 14 14 13 13 13 13 13 13 13 13 13 12 12 12 12 12 12 12 12 12 12 12 12 12 12 12 12 12 12 12 12 12 12 12 12 12 12 12
13 13 13 13 13 13 13 13 13 13 13 13 12 12 12 12 12 12 12 12 12 12 12 12 12 12 12 12 12 12 12 12 12 12 12 12 12 12 12 12 12 12 12
13 13 13 13 13 13 13 13 13 13 13 12 12 12 12 12 12 12 12 12 12 12 12 12 12 12 12 12 12 12 12 12 12 12 12 12 12 12 12 12 12 12 12
13 13 13 13 13 13 13 12 12 12 12 12 12 12 12 12 12 12 12 12 12 12 12 12 12 11 11 11 11 11 11 11 11 11 11 11 11 11 11 11 11 11 11
13 12 12 12 12 12 12 12 12 12 12 12 11 11 11 11 11 12 11 11 11 11 11 11 11 11 11 11 11 11 11 11 11 11 11 11 11 11 11 11 11 11 11
12 12 12 12 12 12 12 12 12 11 11 11 11 11 11 11 11 11 11 11 11 11 11 11 11 11 11 10 10 11 10 11 10 10 11 11 11 11 11 11 11 11 11
12 12 12 11 11 11 11 11 11 11 11 11 11 11 11 11 11 10 11 11 10 10 10 10 10 10 10 10 10 10 10 10 10 10 10 10 10 10 10 10 10 10 10
11 11 11 11 11 11 11 11 11 11 10 10 10 10 10 10 10 10 10 10 10 10 10 10 10 10 10 10 10 10 10 10 10 10 10 10 10 10 10 10 10 10 10
11 11 10 10 11 10 10 10 10 10 10 10 10 10 10 10 10 10 10 10 10 10 10 10 9 10 10 10 9 10 10 9 9 9 9 9 9 9 10 10 10 10 10
10 10 10 10 10 10 10 10 10 10 9 9 9 9 10 10 10 10 9 9 9 9 9 9 9 9 9 9 9 9 9 9 9 9 9 9 9 9 9 9 9 9 9
10 9 9 9 9 9 9 9 9 9 9 9 9 9 9 9 9 9 9 9 9 9 9 9 9 9 9 9 9 9 9 9 8 8 8 8 8 8 8 9 9 9 9
Wind_Speed
2 2 2 2 3 3 2 2 4 4 5 6 7 7 6 8 9 9 9 12 11 11 11 11 10 10 10 10 11 11 10 10 10 9 9 9 9 8 8 8 8 8 8
2 2 2 2 2 2 3 3 4 4 4 4 5 6 6 7 8 8 8 10 12 12 12 12 10 10 10 10 10 10 10 10 9 9 9 8 7 7 8 8 9 10 10
3 3 2 2 2 3 4 4 5 4 4 4 5 6 6 6 6 7 7 8 10 11 12 12 11 10 10 10 10 10 10 9 9 9 8 9 9 8 8 9 10 10 9
5 3 3 2 3 4 3 2 3 4 4 4 4 4 4 4 5 5 7 7 8 9 10 12 12 11 11 11 10 10 9 9 9 8 8 8 8 8 8 8 9 9 9
5 4 2 2 4 3 2 3 3 3 3 3 3 2 2 3 3 4 5 6 7 8 8 10 10 10 10 10 9 9 9 8 8 8 8 8 7 7 7 7 8 7 8
4 4 2 2 3 2 2 3 3 2 1 1 2 2 2 1 3 3 3 4 5 6 7 7 7 8 8 8 8 8 8 8 8 8 7 7 7 7 7 7 7 7 8
3 3 2 2 2 2 2 2 2 2 2 1 2 2 2 1 3 2 2 2 3 4 5 5 6 6 6 6 7 7 7 7 7 7 7 7 7 7 6 7 7 7 7
3 2 2 2 2 2 2 2 2 1 1 1 1 1 1 2 2 1 2 2 2 3 2 4 5 6 6 6 6 6 5 5 5 5 5 5 6 6 6 6 6 6 6
3 3 2 1 1 2 1 1 1 1 1 1 1 1 1 0 1 1 1 1 1 1 1 3 4 5 6 6 5 5 5 4 4 4 4 4 4 5 5 5 5 5 6
2 3 2 2 1 2 1 1 1 1 1 0 1 1 1 2 1 1 2 1 1 1 0 1 3 5 6 6 6 5 4 4 3 3 3 3 4 4 4 4 4 4 4
1 2 2 1 1 1 1 1 2 1 1 0 0 1 1 0 0 1 1 1 1 1 1 1 2 4 5 6 6 5 3 3 2 2 2 2 3 3 3 3 3 3 3
0 1 1 1 1 1 1 1 1 1 0 1 0 0 0 0 1 1 1 1 1 2 1 1 2 3 4 5 4 4 3 2 1 1 2 2 2 2 2 1 2 2 3
0 0 1 1 1 1 1 1 1 0 0 0 0 1 1 1 1 1 0 1 1 1 0 1 2 3 3 5 5 4 3 3 3 2 1 1 1 1 0 1 1 1 2
1 1 1 1 1 1 1 1 0 0 0 1 1 1 1 2 1 0 0 1 1 1 1 2 1 3 3 5 6 5 4 5 4 3 2 2 1 1 1 2 1 1 1
0 0 1 1 1 1 1 1 1 1 1 1 1 1 1 1 1 1 0 1 2 1 3 2 1 2 3 4 6 6 5 6 6 5 4 3 3 2 2 1 1 1 1
1 0 0 0 0 1 0 1 1 1 1 1 1 1 1 1 1 1 1 1 1 2 3 2 2 2 2 2 4 4 5 7 6 6 5 4 4 3 3 3 2 2 1
1 1 1 1 0 0 0 1 0 1 1 1 1 1 2 1 0 1 1 1 2 2 3 3 2 2 2 2 3 3 4 6 6 7 6 6 6 6 5 4 4 3 2
1 2 1 1 1 1 1 1 1 2 2 2 2 2 2 1 1 1 1 2 2 2 2 4 2 1 2 3 3 3 3 4 5 7 7 7 7 7 7 6 6 5 4
1 2 1 1 1 1 1 1 1 2 3 3 3 2 2 1 1 1 1 2 2 3 2 3 3 2 2 2 2 2 2 2 4 6 7 7 8 8 8 8 7 6 6
2 2 2 2 2 2 1 1 1 2 3 3 3 3 2 2 3 2 2 2 2 2 2 2 3 2 2 2 2 1 1 1 2 3 4 5 7 9 9 9 8 7 7
2 2 2 2 2 2 1 1 2 3 3 3 3 3 3 2 3 2 3 3 2 2 2 2 2 2 2 1 2 2 2 2 2 1 1 2 4 4 6 8 9 8 7
2 2 2 2 2 2 2 2 3 3 3 4 4 4 3 3 4 4 5 4 3 3 2 2 3 3 4 3 2 2 2 1 2 2 1 2 2 2 3 6 8 9 8
2 2 3 2 2 2 2 3 4 3 4 4 4 4 5 4 3 3 4 4 5 5 6 4 4 5 4 3 2 2 2 3 3 3 1 2 2 2 3 5 8 9 8
2 2 3 3 2 3 2 2 4 4 5 5 5 5 5 4 4 3 3 4 4 4 5 5 5 5 4 3 4 4 4 3 2 1 2 2 2 2 2 4 8 9 8
3 3 3 3 3 3 3 3 3 3 4 5 5 4 3 3 4 4 3 4 4 4 4 3 4 4 4 4 3 2 2 2 2 2 2 2 2 2 2 2 5 8 8
3 3 3 3 2 2 3 3 3 2 3 4 4 3 3 3 3 3 3 4 5 4 3 2 2 3 3 3 3 4 4 4 2 2 2 2 1 0 1 1 2 4 5
Wind_Direction
88 86 82 82 70 55 45 24 56 48 43 43 56 59 67 77 84 80 74 75 73 69 64 58 65 70 73 76 74 74 73 73 70 67 66 68 70 68 69 66 64 70 76
85 81 75 69 68 55 48 43 53 53 51 45 47 52 62 72 80 88 85 75 71 68 65 61 66 72 74 74 76 75 71 67 66 66 65 65 67 70 69 69 72 74 75
80 83 69 61 59 55 51 47 47 48 52 51 51 50 48 66 78 86 92 92 81 72 71 66 67 72 73 77 75 74 71 69 68 67 66 67 69 71 71 71 73 73 72
71 67 60 52 55 57 54 43 44 41 41 41 43 49 48 57 65 83 89 93 93 86 80 75 69 69 69 73 74 74 72 70 68 66 66 68 71 72 73 73 72 72 72
66 74 59 49 51 52 45 38 46 43 42 37 44 58 54 59 53 67 77 88 96 100 97 88 80 74 71 70 72 72 70 67 66 64 63 65 71 74 73 76 76 74 72
55 72 80 62 62 55 47 39 40 38 56 40 52 62 56 84 63 58 66 83 87 99 103 102 98 85 75 70 70 69 68 67 64 62 61 63 71 74 72 73 78 79 75
53 66 60 51 54 60 64 69 58 32 37 45 64 45 10 56 87 89 71 79 77 96 110 115 120 109 93 78 69 68 66 65 64 63 63 66 71 73 71 73 76 80 78
46 63 76 81 62 66 59 60 69 45 7 40 85 90 40 14 5 105 96 95 88 101 106 112 111 114 112 102 82 70 64 63 64 64 65 66 69 73 72 73 76 78 75
40 35 59 83 97 100 87 83 98 80 15 356 40 89 109 150 318 354 117 114 97 82 72 117 110 104 105 107 100 79 62 58 66 69 67 64 68 75 76 75 80 78 80
43 50 33 56 57 83 103 101 85 81 98 308 337 10 90 128 130 332 320 31 106 133 137 89 103 103 102 107 109 97 73 60 64 68 68 65 71 75 77 78 89 88 87
58 59 35 17 36 85 111 83 71 65 110 176 338 347 354 21 291 160 267 315 332 297 170 133 117 119 113 115 115 110 93 79 71 68 60 63 70 68 72 80 84 91 94
95 65 60 21 28 49 87 93 102 81 9 339 12 34 47 120 293 221 229 261 270 272 254 142 132 130 130 131 135 132 133 140 127 109 75 65 65 64 64 87 99 93 100
345 263 74 40 23 25 63 94 127 175 173 248 244 297 290 263 261 259 190 264 294 279 239 205 164 150 146 137 148 158 169 180 175 154 120 98 90 66 24 161 152 120 108
212 215 123 119 70 67 80 96 161 252 238 228 243 242 280 296 317 310 171 154 311 298 266 233 192 159 160 154 168 174 183 194 190 191 191 187 188 216 206 183 183 166 152
229 261 126 133 149 93 124 151 175 232 240 235 247 225 250 278 292 301 250 172 174 255 267 237 214 207 175 169 182 188 186 198 202 207 202 198 199 212 200 186 185 197 198
259 303 253 69 88 102 69 153 186 238 231 225 220 213 234 260 283 284 275 266 209 201 250 252 240 222 178 173 191 192 189 196 203 205 207 207 210 217 217 211 202 199 194
269 270 279 230 214 140 147 110 201 271 262 267 260 232 240 237 259 277 288 280 265 230 248 274 254 206 184 183 174 204 199 188 200 206 211 215 220 221 221 218 213 211 215
247 259 257 258 258 243 225 177 248 255 259 260 266 259 257 268 234 240 252 269 271 253 233 260 268 234 222 203 182 190 194 197 193 207 210 214 218 223 220 219 215 211 213
233 262 271 272 267 247 239 224 252 265 263 259 252 245 241 245 259 258 240 254 272 277 245 241 260 247 236 210 183 218 211 199 208 205 210 214 219 223 223 220 218 214 211
229 244 246 257 269 275 248 227 245 269 265 266 260 249 226 211 221 239 242 244 260 285 287 268 266 271 255 220 164 203 263 270 263 205 206 217 223 223 224 223 221 215 210
270 261 253 249 253 258 261 296 272 280 270 270 269 261 249 237 230 242 254 250 246 254 270 268 265 277 273 243 210 209 233 271 275 231 195 220 213 216 220 219 216 210 206
266 271 273 263 264 275 276 284 289 275 272 266 269 267 256 242 247 256 263 258 237 231 244 249 255 256 255 248 220 202 198 246 267 250 192 259 206 227 213 202 201 200 199
278 271 267 261 260 261 258 272 283 273 270 264 258 261 271 260 242 234 254 266 264 247 228 227 241 247 244 240 218 213 214 219 244 234 171 257 244 236 229 205 191 190 193
275 272 270 260 253 256 264 285 286 265 263 268 261 253 254 250 237 229 236 248 257 259 246 236 239 244 243 224 213 216 223 242 261 229 171 226 244 238 236 203 195 187 192
279 275 269 260 250 247 252 267 281 268 266 270 268 268 265 265 247 243 240 248 257 270 280 268 247 247 263 276 247 218 218 223 260 254 215 201 238 258 249 225 196 189 193
270 264 272 269 259 261 263 262 279 270 274 278 274 270 286 290 276 261 247 249 251 256 264 284 287 278 266 268 253 218 209 210 229 238 211 179 226 196 267 244 181 191 203
Height
1532 1532 1532 1532 1532 1531 1531 1531 1531 1531 1530 1530 1530 1530 1529 1529 1528 1528 1528 1528 1527 1527 1526 1526 1525 1525 1525 1525 1525 1525 1525 1525 1525 1525 1525 1525 1525 1525 1526 1526 1525 1525 1526
1533 1533 1533 1533 1533 1533 1533 1532 1532 1532 1532 1532 1531 1531 1531 1531 1530 1530 1529 1529 1528 1528 1527 1526 1525 1525 1526 1526 1526 1526 1526 1526 1526 1526 1526 1526 1526 1526 1526 1527 1526 1526 1527
1533 1534 1533 1533 1534 1534 1533 1533 1533 1533 1533 1533 1532 1532 1532 1532 1531 1531 1530 1530 1529 1529 1528 1527 1526 1527 1527 1526 1526 1526 1527 1527 1527 1527 1526 1526 1526 1527 1527 1527 1527 1527 1528
1534 1534 1534 1534 1534 1534 1534 1533 1533 1533 1533 1533 1533 1533 1533 1533 1533 1532 1532 1531 1530 1530 1529 1529 1528 1528 1527 1527 1527 1527 1527 1527 1527 1527 1527 1527 1527 1527 1528 1528 1528 1528 1528
1534 1534 1534 1534 1534 1534 1534 1534 1534 1534 1534 1533 1533 1534 1534 1534 1534 1533 1533 1532 1532 1531 1530 1530 1529 1529 1529 1528 1528 1528 1528 1527 1527 1527 1528 1528 1528 1528 1528 1529 1529 1529 1529
1534 1534 1534 1534 1534 1534 1534 1534 1534 1534 1534 1534 1534 1534 1534 1534 1534 1534 1534 1533 1533 1532 1532 1531 1530 1530 1529 1529 1529 1528 1528 1528 1528 1528 1528 1528 1528 1528 1529 1529 1529 1529 1529
1534 1534 1534 1534 1534 1534 1534 1534 1534 1534 1534 1534 1534 1534 1534 1534 1535 1534 1534 1534 1534 1533 1533 1532 1531 1531 1530 1530 1530 1529 1529 1529 1528 1528 1528 1528 1528 1528 1529 1529 1529 1529 1530
1534 1534 1534 1534 1534 1534 1534 1534 1534 1534 1534 1534 1534 1534 1534 1535 1535 1535 1535 1534 1534 1534 1533 1533 1532 1531 1531 1530 1530 1530 1529 1529 1529 1528 1528 1528 1528 1528 1528 1529 1529 1529 1530
1533 1533 1534 1533 1533 1533 1533 1533 1533 1534 1534 1534 1534 1535 1535 1535 1535 1535 1535 1535 1534 1534 1534 1533 1533 1532 1531 1530 1530 1530 1529 1529 1528 1528 1528 1528 1528 1528 1528 1529 1529 1529 1529
1532 1532 1532 1533 1532 1532 1533 1533 1533 1533 1533 1533 1534 1534 1535 1535 1535 1535 1535 1535 1535 1534 1534 1533 1533 1532 1531 1530 1530 1529 1529 1528 1528 1528 1528 1528 1528 1528 1528 1528 1528 1529 1529
1531 1531 1531 1531 1531 1531 1532 1532 1532 1532 1532 1532 1533 1533 1533 1533 1534 1534 1534 1534 1534 1534 1533 1533 1532 1531 1531 1530 1529 1529 1528 1528 1527 1527 1527 1527 1527 1527 1527 1528 1528 1528 1528
1530 1530 1530 1530 1530 1530 1530 1531 1531 1531 1531 1531 1532 1532 1532 1532 1532 1533 1532 1532 1532 1532 1532 1532 1531 1531 1530 1529 1529 1528 1528 1527 1527 1527 1526 1526 1526 1526 1526 1527 1527 1527 1527
1528 1529 1529 1529 1529 1529 1529 1529 1529 1529 1530 1530 1530 1530 1531 1531 1531 1531 1531 1531 1531 1531 1531 1530 1530 1529 1529 1528 1528 1527 1527 1526 1526 1526 1526 1525 1525 1525 1525 1525 1526 1526 1526
1526 1527 1527 1527 1527 1527 1527 1527 1527 1528 1528 1528 1528 1528 1529 1529 1529 1529 1530 1530 1529 1529 1529 1529 1528 1528 1527 1527 1526 1526 1525 1525 1525 1525 1524 1524 1524 1524 1524 1524 1524 1525 1525
1525 1525 1525 1525 1525 1525 1525 1525 1525 1526 1526 1526 1526 1527 1527 1527 1527 1527 1528 1528 1528 1527 1527 1526 1526 1526 1526 1525 1525 1524 1524 1524 1523 1523 1523 1523 1523 1522 1522 1523 1523 1523 1523
1522 1522 1523 1523 1523 1523 1523 1523 1523 1523 1524 1524 1524 1524 1524 1525 1525 1525 1525 1526 1526 1526 1525 1524 1524 1524 1524 1523 1523 1522 1522 1522 1522 1522 1521 1521 1521 1521 1521 1521 1521 1522 1522
1520 1520 1520 1520 1520 1521 1520 1520 1520 1521 1521 1521 1521 1522 1522 1522 1522 1522 1522 1522 1523 1523 1522 1521 1522 1522 1521 1521 1520 1520 1520 1520 1520 1520 1519 1519 1519 1519 1519 1520 1520 1520 1520
1517 1517 1517 1517 1518 1518 1518 1518 1518 1518 1518 1518 1518 1519 1519 1519 1519 1519 1519 1519 1519 1520 1520 1519 1519 1519 1518 1518 1518 1518 1517 1517 1517 1517 1517 1517 1517 1517 1518 1518 1518 1518 1518
1514 1514 1514 1515 1515 1515 1515 1515 1515 1515 1515 1515 1515 1516 1516 1516 1516 1516 1516 1516 1516 1516 1516 1516 1515 1516 1515 1515 1515 1515 1515 1515 1515 1515 1515 1515 1515 1515 1515 1516 1516 1516 1516
1510 1511 1511 1511 1511 1511 1512 1512 1511 1511 1512 1512 1512 1513 1513 1513 1513 1513 1513 1513 1513 1513 1512 1512 1512 1512 1512 1512 1512 1512 1511 1512 1512 1512 1512 1512 1512 1512 1513 1513 1513 1513 1514
1507 1507 1507 1507 1508 1508 1508 1508 1508 1508 1508 1508 1508 1509 1509 1509 1509 1509 1509 1509 1509 1509 1509 1508 1508 1508 1508 1508 1508 1508 1508 1508 1509 1509 1509 1509 1509 1509 1509 1509 1510 1510 1511
1503 1503 1503 1503 1504 1504 1504 1504 1504 1504 1504 1504 1504 1504 1505 1505 1505 1505 1506 1506 1506 1505 1505 1505 1504 1504 1504 1505 1505 1505 1505 1505 1505 1506 1506 1505 1506 1505 1506 1506 1507 1507 1508
1499 1499 1499 1500 1500 1500 1500 1500 1500 1500 1500 1500 1500 1500 1500 1500 1501 1501 1501 1501 1501 1501 1501 1501 1501 1501 1501 1501 1501 1501 1501 1501 1501 1502 1502 1502 1502 1502 1503 1503 1504 1505 1505
1495 1495 1495 1495 1495 1496 1496 1496 1495 1495 1495 1495 1496 1496 1496 1496 1496 1496 1496 1496 1496 1496 1497 1497 1497 1497 1497 1497 1497 1497 1497 1497 1498 1499 1499 1499 1499 1499 1499 1500 1501 1501 1502
1491 1491 1491 1491 1491 1491 1491 1491 1491 1491 1491 1491 1491 1491 1491 1491 1491 1491 1491 1491 1491 1491 1492 1492 1492 1492 1492 1493 1493 1493 1493 1493 1493 1493 1495 1495 1495 1496 1496 1496 1497 1498 1498
1487 1487 1487 1487 1487 1486 1487 1487 1486 1486 1486 1486 1486 1486 1486 1486 1486 1486 1486 1486 1485 1485 1486 1486 1487 1487 1487 1487 1488 1489 1489 1489 1488 1489 1490 1491 1492 1492 1492 1492 1493 1494 1494